• In Belgien
  • Länderverzeichnis
  • Für 7 Tage
  • Wassertemperatur
  • Satellitenkarten
  • Wetterkarte
  • Widgets
  • user-avatar
    Anmelden

    Stündliche Wetter Chardzhou

    Heute, 19 Oktober, Freitag

    Zeit Temperatur Niederschläge Wind Luftdruck Luftfeuchtigkeit
    00:00 +8°C° 0 mm 1 m/S 750 mmHg 29%
    01:00 +7°C° 0 mm 1 m/S 750 mmHg 30%
    02:00 +7°C° 0 mm 1 m/S 751 mmHg 31%
    03:00 +6°C° 0 mm 1 m/S 751 mmHg 31%
    04:00 +5°C° 0 mm 0 m/S 751 mmHg 33%
    05:00 +6°C° 0 mm 0 m/S 751 mmHg 31%
    06:00 +7°C° 0 mm 0 m/S 751 mmHg 29%
    07:00 +8°C° 0 mm 0 m/S 752 mmHg 27%
    08:00 +10°C° 0 mm 0 m/S 752 mmHg 24%
    09:00 +12°C° 0 mm 0 m/S 752 mmHg 21%
    10:00 +15°C° 0 mm 1 m/S 752 mmHg 18%
    11:00 +16°C° 0 mm 1 m/S 752 mmHg 17%
    12:00 +18°C° 0 mm 1 m/S 752 mmHg 16%
    13:00 +19°C° 0 mm 1 m/S 752 mmHg 15%
    14:00 +19°C° 0 mm 1 m/S 751 mmHg 15%
    15:00 +19°C° 0 mm 2 m/S 751 mmHg 15%
    16:00 +18°C° 0 mm 2 m/S 751 mmHg 17%
    17:00 +17°C° 0 mm 2 m/S 751 mmHg 19%
    18:00 +15°C° 0 mm 2 m/S 751 mmHg 22%
    19:00 +12°C° 0 mm 3 m/S 751 mmHg 24%
    20:00 +12°C° 0 mm 3 m/S 751 mmHg 25%
    21:00 +12°C° 0 mm 3 m/S 751 mmHg 26%
    22:00 +11°C° 0 mm 3 m/S 751 mmHg 27%
    23:00 +11°C° 0 mm 3 m/S 751 mmHg 28%

    Morgen, 20 Oktober, Samstag

    Zeit Temperatur Niederschläge Wind Luftdruck Luftfeuchtigkeit
    00:00 +10°C° 0 mm 3 m/S 751 mmHg 29%
    01:00 +10°C° 0 mm 2 m/S 751 mmHg 30%
    02:00 +9°C° 0 mm 2 m/S 751 mmHg 31%
    03:00 +9°C° 0 mm 2 m/S 751 mmHg 33%
    04:00 +9°C° 0 mm 2 m/S 751 mmHg 34%
    05:00 +9°C° 0 mm 2 m/S 751 mmHg 34%
    06:00 +10°C° 0 mm 2 m/S 751 mmHg 33%
    07:00 +10°C° 0 mm 2 m/S 751 mmHg 33%
    08:00 +13°C° 0 mm 2 m/S 751 mmHg 29%
    09:00 +16°C° 0 mm 2 m/S 751 mmHg 25%
    10:00 +18°C° 0 mm 2 m/S 751 mmHg 21%
    11:00 +19°C° 0 mm 2 m/S 751 mmHg 20%
    12:00 +20°C° 0 mm 2 m/S 751 mmHg 18%
    13:00 +21°C° 0 mm 2 m/S 750 mmHg 16%
    14:00 +21°C° 0 mm 2 m/S 750 mmHg 16%
    15:00 +21°C° 0 mm 2 m/S 750 mmHg 15%
    16:00 +21°C° 0 mm 2 m/S 749 mmHg 15%
    17:00 +19°C° 0 mm 2 m/S 749 mmHg 17%
    18:00 +17°C° 0 mm 2 m/S 749 mmHg 19%
    19:00 +15°C° 0 mm 2 m/S 749 mmHg 21%
    20:00 +15°C° 0 mm 2 m/S 749 mmHg 22%
    21:00 +14°C° 0 mm 2 m/S 749 mmHg 24%
    22:00 +13°C° 0 mm 2 m/S 749 mmHg 25%
    23:00 +13°C° 0 mm 2 m/S 749 mmHg 26%

    übermorgen, 21 Oktober, Sonntag

    Zeit Temperatur Niederschläge Wind Luftdruck Luftfeuchtigkeit
    00:00 +12°C° 0 mm 2 m/S 748 mmHg 27%
    01:00 +12°C° 0 mm 1 m/S 748 mmHg 29%
    02:00 +11°C° 0 mm 1 m/S 748 mmHg 29%
    03:00 +11°C° 0 mm 1 m/S 748 mmHg 29%
    04:00 +11°C° 0 mm 1 m/S 748 mmHg 29%
    05:00 +12°C° 0 mm 1 m/S 748 mmHg 28%
    06:00 +13°C° 0 mm 2 m/S 748 mmHg 26%
    07:00 +14°C° 0 mm 2 m/S 748 mmHg 24%
    08:00 +16°C° 0 mm 2 m/S 749 mmHg 21%
    09:00 +19°C° 0 mm 2 m/S 749 mmHg 17%
    10:00 +23°C° 0 mm 2 m/S 749 mmHg 14%
    11:00 +24°C° 0 mm 2 m/S 749 mmHg 14%
    12:00 +25°C° 0 mm 2 m/S 748 mmHg 13%
    13:00 +26°C° 0 mm 2 m/S 748 mmHg 13%
    14:00 +26°C° 0 mm 2 m/S 747 mmHg 13%
    15:00 +26°C° 0 mm 2 m/S 747 mmHg 13%
    16:00 +26°C° 0 mm 1 m/S 747 mmHg 13%
    17:00 +23°C° 0 mm 1 m/S 747 mmHg 16%
    18:00 +20°C° 0 mm 2 m/S 747 mmHg 19%
    19:00 +17°C° 0 mm 2 m/S 747 mmHg 22%
    20:00 +17°C° 0 mm 2 m/S 747 mmHg 22%
    21:00 +16°C° 0 mm 2 m/S 747 mmHg 23%
    22:00 +16°C° 0 mm 2 m/S 747 mmHg 24%
    23:00 +16°C° 0 mm 2 m/S 747 mmHg 25%

    22 Oktober, Montag

    Zeit Temperatur Niederschläge Wind Luftdruck Luftfeuchtigkeit
    00:00 +16°C° 0 mm 2 m/S 746 mmHg 25%
    01:00 +15°C° 0 mm 2 m/S 746 mmHg 26%
    02:00 +15°C° 0 mm 2 m/S 746 mmHg 27%
    03:00 +14°C° 0 mm 2 m/S 746 mmHg 28%
    04:00 +14°C° 0 mm 2 m/S 746 mmHg 29%
    05:00 +15°C° 0 mm 2 m/S 746 mmHg 29%
    06:00 +14°C° 0 mm 3 m/S 746 mmHg 28%
    07:00 +16°C° 0 mm 3 m/S 747 mmHg 27%
    08:00 +18°C° 0 mm 3 m/S 747 mmHg 24%
    09:00 +21°C° 0 mm 3 m/S 747 mmHg 20%
    10:00 +25°C° 0 mm 3 m/S 747 mmHg 16%
    11:00 +26°C° 0 mm 3 m/S 747 mmHg 15%
    12:00 +27°C° 0 mm 2 m/S 746 mmHg 14%
    13:00 +28°C° 0 mm 2 m/S 746 mmHg 12%
    14:00 +28°C° 0 mm 1 m/S 746 mmHg 12%
    15:00 +27°C° 0 mm 1 m/S 745 mmHg 12%
    16:00 +25°C° 0 mm 0 m/S 745 mmHg 12%
    17:00 +25°C° 0 mm 1 m/S 745 mmHg 15%
    18:00 +21°C° 0 mm 2 m/S 745 mmHg 17%
    19:00 +19°C° 0 mm 2 m/S 745 mmHg 19%
    20:00 +18°C° 0 mm 2 m/S 745 mmHg 20%
    21:00 +18°C° 0 mm 2 m/S 745 mmHg 21%
    22:00 +17°C° 0 mm 2 m/S 745 mmHg 22%
    23:00 +17°C° 0 mm 2 m/S 745 mmHg 22%

    23 Oktober, Dienstag

    Zeit Temperatur Niederschläge Wind Luftdruck Luftfeuchtigkeit
    00:00 +17°C° 0 mm 2 m/S 745 mmHg 22%
    01:00 +16°C° 0 mm 2 m/S 745 mmHg 23%
    02:00 +16°C° 0 mm 2 m/S 745 mmHg 24%
    03:00 +15°C° 0 mm 2 m/S 745 mmHg 25%
    04:00 +15°C° 0 mm 2 m/S 745 mmHg 26%
    05:00 +15°C° 0 mm 2 m/S 745 mmHg 25%
    06:00 +16°C° 0 mm 2 m/S 746 mmHg 24%
    07:00 +17°C° 0 mm 2 m/S 746 mmHg 23%
    08:00 +19°C° 0 mm 2 m/S 746 mmHg 20%
    09:00 +21°C° 0 mm 2 m/S 746 mmHg 18%
    10:00 +25°C° 0 mm 2 m/S 747 mmHg 15%
    11:00 +25°C° 0 mm 2 m/S 746 mmHg 14%
    12:00 +26°C° 0 mm 1 m/S 746 mmHg 13%
    13:00 +27°C° 0 mm 1 m/S 746 mmHg 13%
    14:00 +27°C° 0 mm 1 m/S 746 mmHg 13%
    15:00 +26°C° 0 mm 1 m/S 746 mmHg 13%
    16:00 +26°C° 0 mm 1 m/S 745 mmHg 13%
    17:00 +24°C° 0 mm 1 m/S 745 mmHg 15%
    18:00 +21°C° 0 mm 2 m/S 746 mmHg 18%
    19:00 +19°C° 0 mm 2 m/S 746 mmHg 20%
    20:00 +19°C° 0 mm 2 m/S 746 mmHg 20%
    21:00 +19°C° 0 mm 3 m/S 746 mmHg 21%
    22:00 +19°C° 0 mm 3 m/S 746 mmHg 21%
    23:00 +18°C° 0 mm 3 m/S 745 mmHg 21%

    24 Oktober, Mittwoch

    Zeit Temperatur Niederschläge Wind Luftdruck Luftfeuchtigkeit
    00:00 +18°C° 0 mm 3 m/S 745 mmHg 22%
    01:00 +18°C° 0 mm 2 m/S 745 mmHg 22%
    02:00 +18°C° 0 mm 2 m/S 745 mmHg 22%
    03:00 +18°C° 0 mm 2 m/S 745 mmHg 22%
    04:00 +18°C° 0 mm 2 m/S 745 mmHg 21%
    05:00 +18°C° 0 mm 2 m/S 745 mmHg 20%
    06:00 +19°C° 0 mm 2 m/S 745 mmHg 20%
    07:00 +19°C° 0 mm 2 m/S 745 mmHg 19%
    08:00 +21°C° 0 mm 2 m/S 745 mmHg 17%
    09:00 +24°C° 0 mm 2 m/S 746 mmHg 15%
    10:00 +25°C° 0 mm 2 m/S 746 mmHg 13%
    11:00 +26°C° 0 mm 2 m/S 745 mmHg 12%
    12:00 +27°C° 0 mm 2 m/S 745 mmHg 11%
    13:00 +28°C° 0 mm 2 m/S 744 mmHg 10%
    14:00 +28°C° 0 mm 2 m/S 744 mmHg 11%
    15:00 +28°C° 0 mm 2 m/S 744 mmHg 11%
    16:00 +28°C° 0 mm 1 m/S 744 mmHg 11%
    17:00 +26°C° 0 mm 2 m/S 744 mmHg 13%
    18:00 +23°C° 0 mm 2 m/S 744 mmHg 15%
    19:00 +20°C° 0 mm 3 m/S 744 mmHg 17%
    20:00 +20°C° 0 mm 3 m/S 744 mmHg 18%
    21:00 +19°C° 0 mm 4 m/S 744 mmHg 19%
    22:00 +19°C° 0 mm 4 m/S 744 mmHg 20%
    23:00 +18°C° 0 mm 4 m/S 743 mmHg 21%
    Mehr zeigen